Location: Sebastopol
(38.4021°N, 122.8239°W)
Time: 15:39:29
(UTC+00:00)

Cosmos 2082 Rocket - Pass Details

Date: 29 October 2020
Orbit: 833 x 854 km, 71.0° (Epoch: 01 December)

Event Time Altitude Azimuth Distance (km) Brightness Sun altitude
Exits shadow 12:09:34 50° 162° (SSE) 1,048 2.6 -29.0°
Maximum altitude 12:10:49 64° 109° (ESE) 917 2.5 -28.8°
Drops below altitude 10° 12:16:21 10° 29° (NNE) 2,450 5.0 -27.7°
Sets 12:18:49 0° 26° (NNE) 3,389 5.7 -27.2°
